Back to catalog

STARLINK-11522

AliveCommunicationsVLEO
NORAD 63141·PAYLOAD·🇺🇸 United States

Launched Mar 3, 2025 from Cape Canaveral Space Force Station

Loading…

Next Passes (next 24 hours)

TLE

FreshSource: CelesTrak SupGP

Epoch: Sep 14, 2026, 15:29 UTC

1 63141C 25043K   26257.64562500  .00025034  00000+0  19459-3 0  2570
2 63141  43.0006 191.5540 0001576 266.7120  40.2827 15.70807742    13

Track STARLINK-11522 in real time with AllMySat

Download on the App Store